Regional Weather Roundup
Issued by NWS New Orleans/Baton Rouge, LA

Home | Current Version | Previous Version | Graphics & Text | Print | Product List | Glossary On
Versions: 1 2 3 4 5 6 7 8 9 10 11 12 13 14 15 16 17 18 19 20 21 22 23 24 25 26 27 28 29 30 31 32 33 34 35 36 37 38 39 40 41 42 43 44 45 46 47 48 49 50
689
ASUS44 KLIX 260101
RWRLIX
NEW ORLEANS REGIONAL WEATHER ROUNDUP
NATIONAL WEATHER SERVICE NEW ORLEANS LA
700 PM CST SUN JAN 25 2015

NOTE: "FAIR" INDICATES FEW OR NO CLOUDS BELOW 12,000 FEET WITH NO
      SIGNIFICANT WEATHER AND/OR OBSTRUCTIONS TO VISIBILITY.
      SKY/WX - SKY CONDITION AND SIGNIFICANT WEATHER.
      TMP - AIR TEMPERATURE.     DP    - DEWPOINT TEMPERATURE.
      RH  - RELATIVE HUMIDITY.   PRES  - PRESSURE.
      HI  - HEAT INDEX.          WCI   - WIND CHILL INDEX.

*  THESE STATIONS ARE NOT NWS OR FAA STATIONS AND ARE NOT UNDER
   NWS QUALITY CONTROL.

LAZ038-040-048-061>063-065>067-069-260200-
SOUTHEAST LOUISIANA

CITY           SKY/WX    TMP DP  RH WIND       PRES   REMARKS
N.O. AUDUBON     N/A     54  44  69 MISG        N/A
N.O. INTL ARPT PTCLDY    58  41  53 W15       29.91R
N.O. LAKEFRONT CLEAR     58  44  60 W16       29.91R
N.O. DOWNTOWN*   N/A     57  39  51 SW6       29.92R
SLIDELL        CLEAR     59  40  49 VRB6      29.88R
BATON ROUGE    CLEAR     57  43  59 W9        29.91R
BOOTHVILLE     PTCLDY    61  49  64 W21G32    29.92S
BELLE CHASSE   CLEAR     58  43  57 W10       29.91R
BOGALUSA*        N/A     58  39  49 W5        29.88R
GALLIANO*      NOT AVBL
NEW ROADS*     NOT AVBL
GONZALES*      NOT AVBL
HAMMOND*       NOT AVBL
HOUMA*         CLEAR     55  48  75 W12G18    29.93R
PORT FOURCHON* CLEAR     59  52  77 W17G25    29.97R

$$

MSZ070-080>082-260200-
SOUTHERN MISSISSIPPI

CITY           SKY/WX    TMP DP  RH WIND       PRES   REMARKS
MCCOMB         CLEAR     58  39  49 NW7       29.88R
GULFPORT       CLEAR     57  40  52 W7        29.87R
BILOXI         CLEAR     56  44  64 W6        29.86R
PASCAGOULA     CLEAR     56  42  59 W8        29.87R

$$

COASTAL OBSERVATIONS
LAKE AND NEARSHORE STATIONS

STATION/POSITION TIME  TEMP    WIND        PRES    WAVE
                       AIR SEA DIR/SP/G            HT/PER
                 (UTC) (F)     (DEG/KT/KT) (MB)    (FT/S)
PASCAGOULA       0019   58     230/ 17/ 21 1010.1
WAVELAND YACHT   0019   59     280/  5/  7 1010.4
GRAND ISLE       0019   60 59  250/ 17/ 24 1013.3
SOUTHWEST PASS   0019   60 47  260/ 27/ 32 1014.1
NEW CANAL        0019   61 53  240/ 10/ 16 1011.7
SHELL BEACH      0019   58 54  230/ 16/ 20 1011.4

OFFSHORE STATIONS

STATION/POSITION TIME  TEMP    WIND        PRES    WAVE
                       AIR SEA DIR/SP/G            HT/PER
                 (UTC) (F)     (DEG/KT/KT) (MB)    (FT/S)
64 S DAUPHIN ISL 0037   65 71  260/ 29/ 37 1012.5    7/ 6

$$




USA.gov is the U.S. government's official web portal to all federal, state and local government web resources and services.